Probability
0 0 0 0 0 0 0 0 0 0 0 0 0 0 0 0 0 0 0 0 0 0 0 0 0 0 0 0 0 0 0 0 0 0 2 6 14 22
0 0 0 0 0 0 0 0 0 0 0 0 0 0 0 0 0 0 0 0 0 0 0 0 0 0 0 0 0 0 0 0 0 0 1 4 9 14
0 0 0 0 0 0 0 0 0 0 0 0 0 0 0 0 0 0 0 0 0 0 0 0 0 0 0 0 0 0 0 0 0 0 0 2 4 5
0 0 0 0 0 0 0 0 0 0 0 0 0 0 0 0 0 0 0 0 0 0 0 0 0 0 0 0 0 0 0 0 0 0 0 0 1 1
0 0 0 0 0 0 0 0 0 0 0 0 0 0 0 0 0 0 0 0 0 0 0 0 0 0 0 0 0 0 0 0 0 0 0 0 0 0
0 0 0 0 0 0 0 0 0 0 0 0 0 0 0 0 0 0 0 0 0 0 0 0 0 0 0 0 0 0 0 0 0 0 0 0 0 0
0 0 0 0 0 0 0 0 0 0 0 0 0 0 0 0 0 0 0 0 0 0 0 0 0 0 0 0 0 0 0 0 0 0 0 0 0 0
0 0 0 0 0 0 0 0 0 0 0 0 0 0 0 0 0 0 0 0 0 0 0 0 0 0 0 0 0 0 0 0 0 0 0 0 0 0
0 0 0 0 0 0 0 0 0 0 0 0 0 0 0 0 0 0 0 0 0 0 0 0 0 0 0 0 0 0 0 0 0 0 0 0 0 0
0 0 0 0 0 0 0 0 0 0 0 0 0 0 0 0 0 0 0 0 0 0 0 0 0 0 0 0 0 0 0 0 0 0 0 0 0 0
0 0 0 0 0 0 0 0 0 0 0 0 0 0 0 0 0 0 0 0 0 0 0 0 0 0 0 0 0 0 0 0 0 0 0 0 0 0
0 0 0 0 0 0 0 0 0 0 0 0 0 0 0 0 0 0 0 0 0 0 0 0 0 0 0 0 0 0 0 0 0 0 0 0 0 0
0 0 0 0 0 0 0 0 0 0 0 0 0 0 0 0 0 0 0 0 0 0 0 0 0 0 0 0 0 0 0 0 0 0 0 0 0 0
0 0 0 0 0 0 0 0 0 0 0 0 0 0 0 0 0 0 0 0 0 0 0 0 0 0 0 0 0 0 0 0 0 0 0 0 0 0
0 0 0 0 0 0 0 0 0 0 0 0 0 0 0 0 0 0 0 0 0 0 0 0 0 0 0 0 0 0 0 0 0 0 0 0 0 1
0 0 0 0 0 0 0 0 0 0 0 0 0 0 0 0 0 0 0 0 0 0 0 0 0 0 0 0 0 0 0 0 0 0 0 0 1 2
0 0 0 0 0 0 0 0 0 0 0 0 0 0 0 0 0 0 0 0 0 0 0 0 0 0 0 0 0 0 0 0 0 0 1 0 1 2
0 0 0 0 0 0 0 0 0 0 0 0 0 0 0 0 0 0 0 0 0 0 0 0 0 0 0 0 0 0 0 0 0 0 0 0 0 1
0 0 0 0 0 0 0 0 0 0 0 0 0 0 0 0 0 0 0 0 0 0 0 0 0 0 0 0 0 0 0 0 0 0 0 0 0 0
0 0 0 0 0 0 0 0 0 0 0 0 0 0 0 0 0 0 0 0 0 0 0 0 0 0 0 0 0 0 0 0 0 0 0 0 0 0
0 0 0 0 0 0 0 0 0 0 0 0 0 0 0 0 0 0 0 0 0 0 0 0 0 0 0 0 0 0 0 0 0 0 0 0 0 0
0 0 0 0 0 0 0 0 0 0 0 0 0 0 0 0 0 0 0 0 0 0 0 0 0 0 0 0 0 0 0 0 0 0 0 0 0 0
0 0 0 0 0 0 0 0 0 0 0 0 0 0 0 0 0 0 0 0 0 0 0 0 0 0 0 0 0 0 0 0 0 0 0 0 0 0
Wind_Speed
8 9 8 7 7 7 7 7 8 12 14 10 7 7 7 7 13 9 9 18 21 20 20 21 21 22 22 22 21 21 20 20 19 17 16 16 18 21
7 8 8 7 7 7 7 7 7 9 11 9 8 10 10 10 14 10 10 20 20 20 20 21 22 21 21 21 21 21 20 20 19 18 17 16 16 18
9 9 10 9 8 7 7 7 7 7 10 11 8 8 9 9 10 8 9 9 10 19 21 21 21 21 21 20 21 21 21 20 20 19 18 16 16 17
11 10 11 10 10 8 7 8 8 7 8 12 10 8 8 9 9 10 9 9 8 17 20 20 21 21 21 21 21 21 20 20 19 19 18 17 16 15
11 11 12 11 11 10 10 9 7 7 7 9 10 8 6 7 9 10 10 7 9 13 17 17 18 19 19 20 21 21 20 20 19 19 17 16 15 14
12 12 12 12 13 12 10 9 8 7 7 7 8 8 7 7 6 8 9 7 9 10 10 11 15 17 19 20 21 20 19 19 19 19 17 16 14 14
11 11 11 15 18 15 11 8 7 6 6 7 8 8 8 7 7 6 9 9 9 6 6 8 8 8 9 14 17 19 19 19 19 19 18 16 14 14
10 10 11 13 17 21 21 18 13 8 7 6 6 8 9 8 7 8 8 9 7 4 6 10 7 8 7 7 14 18 18 19 19 19 18 17 15 14
9 9 9 10 15 10 14 17 15 17 16 8 6 8 8 8 8 9 8 8 9 8 8 9 5 8 7 9 17 18 18 18 18 18 18 16 15 15
8 8 10 10 12 13 9 8 8 8 10 8 6 8 8 8 8 7 8 9 9 7 6 7 5 6 8 8 15 17 17 17 17 17 17 16 14 14
8 8 9 9 17 19 8 6 6 7 10 14 14 13 16 16 12 5 6 7 8 5 2 4 5 6 6 6 9 14 14 15 16 16 16 15 14 13
6 7 13 15 18 17 5 4 7 7 6 7 9 11 9 10 13 6 5 6 6 5 3 3 4 5 6 4 4 5 7 11 14 14 15 15 14 10
6 5 7 18 18 15 11 5 9 7 3 6 6 6 5 5 5 5 5 5 6 7 5 4 4 3 4 5 5 4 4 4 6 8 11 14 15 12
6 6 8 16 15 14 10 11 13 10 4 5 5 5 6 6 6 6 7 7 8 10 9 7 6 5 5 5 6 5 4 4 4 5 6 10 12 13
5 12 14 15 13 9 12 14 10 4 4 5 5 6 5 6 7 6 7 7 8 9 9 9 9 8 7 7 5 5 4 4 3 3 5 6 7 8
6 8 12 13 10 9 9 7 4 5 5 5 5 5 5 6 6 6 6 6 6 6 7 8 9 9 8 9 8 8 5 5 3 2 3 4 5 6
4 3 3 5 5 4 4 4 4 5 5 5 5 5 6 6 7 6 5 5 5 6 7 5 6 8 10 7 6 7 6 6 5 4 3 4 5 7
5 3 4 4 5 5 5 5 5 5 5 5 5 5 6 6 7 6 6 6 6 6 6 6 5 4 3 5 9 7 6 5 4 4 4 5 6 6
3 3 4 5 5 5 5 5 5 5 5 5 5 5 6 6 7 7 7 6 6 6 6 5 4 3 3 3 4 7 5 3 2 3 3 4 5 7
2 3 4 5 5 5 5 5 5 5 4 4 5 5 5 6 6 7 7 8 7 7 6 5 4 4 4 4 3 4 6 4 3 3 2 3 3 5
3 4 4 4 5 5 5 5 5 5 5 4 4 5 5 5 6 7 7 11 9 6 7 6 6 9 5 3 3 3 3 3 3 3 3 5 5 5
3 4 4 4 4 4 5 5 5 4 5 4 4 4 5 5 6 7 7 7 7 7 7 6 6 5 2 2 2 3 3 2 2 3 2 2 5 7
3 4 4 4 4 4 4 5 5 5 4 4 4 4 5 5 5 6 7 7 7 7 7 6 4 3 2 1 1 1 1 2 3 5 4 6 9 12
Wind_Direction
274 277 278 280 280 278 278 280 287 301 306 305 306 302 303 295 297 300 297 295 295 290 286 282 279 276 275 274 276 277 281 283 284 280 271 256 235 224
272 274 276 278 280 278 278 277 272 279 290 296 300 301 306 307 307 306 296 300 296 292 287 283 279 276 273 271 272 272 275 277 277 275 269 260 243 228
275 276 277 278 279 281 279 276 275 276 285 295 295 299 299 302 308 305 293 285 287 291 286 280 277 275 273 272 271 269 270 272 273 270 267 261 250 233
274 274 276 278 277 278 277 276 276 275 280 295 303 304 303 303 304 304 306 303 295 292 290 282 277 273 272 269 268 267 267 269 269 268 264 259 251 241
268 269 272 274 275 276 274 272 272 280 277 286 297 296 294 301 308 306 303 291 297 297 292 284 282 278 273 269 267 264 262 263 264 265 262 258 251 241
265 266 267 268 269 273 273 268 270 275 277 282 291 299 298 301 301 310 313 311 307 302 294 297 290 286 279 271 266 263 262 263 262 261 254 249 244 237
268 268 269 276 281 282 282 273 268 267 276 285 292 299 304 311 310 304 307 311 305 289 309 301 294 283 277 272 268 262 259 257 257 255 251 244 236 231
276 276 276 283 288 294 296 296 294 286 280 276 285 292 293 294 296 299 305 313 309 307 314 299 286 276 270 262 261 259 256 253 252 248 246 240 231 226
279 283 287 285 296 287 285 291 294 296 298 292 280 276 281 284 287 291 293 293 286 291 299 288 274 276 272 269 268 260 255 252 249 244 238 233 226 221
276 276 278 281 284 286 272 269 267 276 285 288 265 264 271 274 270 280 289 291 282 275 269 277 289 283 283 273 266 258 253 251 245 237 231 226 220 217
278 278 284 278 289 299 295 281 281 278 291 297 298 299 301 304 303 304 303 302 301 293 265 276 291 295 282 266 263 257 253 250 242 233 225 219 213 208
281 281 296 300 304 313 298 275 282 280 286 296 300 304 301 300 307 301 284 289 294 292 281 297 288 307 302 285 274 266 258 250 238 229 220 211 200 196
294 290 290 307 315 321 324 296 297 313 292 288 288 290 292 287 286 279 263 257 265 264 275 298 286 287 283 301 301 283 268 257 233 221 214 204 194 191
296 291 293 312 324 327 325 318 325 334 312 304 303 301 301 298 291 284 275 263 253 257 264 262 263 267 281 288 285 297 292 260 231 212 201 196 193 193
295 309 319 327 332 329 322 328 337 326 306 306 306 302 296 290 291 292 288 279 272 263 259 253 253 259 254 256 273 291 303 293 264 213 195 193 187 180
305 313 324 329 328 323 325 326 318 304 309 300 299 299 300 301 300 300 301 304 299 288 267 259 255 253 251 250 253 265 267 272 278 252 202 192 181 180
314 311 313 318 320 316 314 309 304 308 313 305 302 305 308 309 308 307 300 302 295 298 303 296 271 253 243 240 247 253 256 253 251 248 202 183 181 180
340 320 315 316 317 317 315 313 309 310 307 304 304 305 308 310 310 309 308 305 303 300 298 302 306 296 260 239 229 249 258 252 251 237 204 176 177 177
333 303 303 306 309 309 306 304 302 304 303 302 304 306 307 309 311 312 314 313 307 302 299 297 294 285 280 284 266 231 243 253 241 228 197 169 170 173
294 290 296 300 304 303 304 304 303 305 305 304 304 305 306 310 313 314 314 314 311 309 308 302 290 274 256 265 289 281 256 246 225 209 167 135 137 141
298 296 295 298 300 302 304 303 302 302 304 305 304 306 307 309 311 312 312 316 318 310 308 304 293 296 279 253 259 277 282 271 230 201 158 147 147 147
289 293 296 296 299 299 302 303 302 300 303 303 303 305 306 306 309 312 314 315 313 309 303 300 302 302 275 246 263 284 305 334 40 73 95 164 158 156
281 288 292 295 296 295 298 301 302 301 299 301 306 306 308 309 310 312 314 315 315 316 317 317 319 324 318 280 278 304 360 38 72 78 60 83 107 112